FW7487 Weather Reports


Display with metric or nautical units.
time (UTC)temp
F
wind
direction
speed
MPH
gust
MPH
rain 1hr
in
rain 24hr
in
rain mn
in
humidity
%
barometer
mb
20260903061600 77 0 0.0 0.0 0.00 0.00 0.00 89 1018.4
20260903060057 77 0 0.0 0.0 0.00 0.00 0.00 89 1018.5
20260903054609 77 0 0.0 0.0 0.00 0.00 0.00 89 1018.4
20260903053108 78 0 0.0 0.0 0.00 0.00 0.00 89 1018.5
20260903051555 78 0 0.0 0.0 0.00 0.00 0.00 88 1018.3
20260903050105 78 0 0.0 0.0 0.00 0.00 0.00 88 1018.5
20260903044602 79 0 0.0 0.0 0.00 0.00 0.00 87 1018.5
20260903043102 79 0 0.0 0.0 0.00 0.00 0.00 87 1018.4
20260903041608 79 0 0.0 0.0 0.00 0.00 0.00 87 1018.4
20260903040125 79 0 0.0 0.0 0.00 0.00 0.00 86 1018.4
20260903034604 79 0 0.0 0.0 0.00 0.00 0.00 86 1018.5
20260903033057 80 0 0.0 0.0 0.00 0.00 0.00 87 1018.6
20260903031551 80 0 0.0 0.0 0.00 0.00 0.00 86 1018.6
20260903030103 80 0 0.0 0.0 0.00 0.00 0.00 86 1018.6
20260903024558 80 0 0.0 0.0 0.00 0.00 0.00 86 1018.6
20260903023102 81 0 0.0 0.0 0.00 0.00 0.00 85 1018.6
20260903021557 81 0 0.0 0.0 0.00 0.00 0.00 83 1018.5
20260903020100 82 0 0.0 1.0 0.00 0.00 0.00 82 1018.5
20260903014601 82 0 0.0 0.0 0.00 0.00 0.00 82 1018.3
20260903013057 82 0 0.0 1.0 0.00 0.00 0.00 82 1018.2
20260903011552 83 0 0.0 1.0 0.00 0.00 0.00 81 1018.1
20260903010100 83 0 0.0 0.0 0.00 0.00 0.00 79 1017.9
20260903004601 84 0 0.0 0.0 0.00 0.00 0.00 77 1017.9
20260903003052 84 0 0.0 0.0 0.00 0.00 0.00 76 1017.7
20260903001608 86 0 0.0 0.0 0.00 0.00 0.00 74 1017.6
20260902234558 88 0 0.0 0.0 0.00 0.00 0.00 68 1017.4
20260902233103 89 0 0.0 1.0 0.00 0.00 0.00 66 1017.3
20260902231550 90 228 0.0 3.0 0.00 0.00 0.00 63 1017.0
20260902230117 91 0 0.0 3.0 0.00 0.00 0.00 61 1017.1
20260902224603 91 160 1.0 5.0 0.00 0.00 0.00 59 1017.2
20260902223056 92 0 0.0 4.0 0.00 0.00 0.00 58 1017.2
20260902221553 92 103 2.0 7.0 0.00 0.00 0.00 56 1017.3
20260902220104 93 201 1.0 4.0 0.00 0.00 0.00 57 1017.4
20260902214617 92 0 2.0 5.0 0.00 0.00 0.00 58 1017.5
20260902213054 93 168 1.0 7.0 0.00 0.00 0.00 59 1017.5
20260902211604 93 134 2.0 6.0 0.00 0.00 0.00 58 1017.5
20260902210126 93 109 2.0 5.0 0.00 0.00 0.00 56 1017.8
20260902204602 92 209 1.0 4.0 0.00 0.00 0.00 60 1017.6
20260902203059 93 0 0.0 5.0 0.00 0.00 0.00 58 1017.7
20260902201621 93 0 1.0 9.0 0.00 0.00 0.00 57 1017.9
20260902200109 93 168 3.0 9.0 0.00 0.00 0.00 59 1018.1
20260902194602 92 170 4.0 8.0 0.00 0.00 0.00 60 1018.3
20260902193053 92 301 0.0 5.0 0.00 0.00 0.00 59 1018.5
20260902191604 93 322 0.0 2.0 0.00 0.00 0.00 56 1018.7
20260902190127 92 0 1.0 5.0 0.00 0.00 0.00 58 1018.8
20260902184607 93 330 3.0 8.0 0.00 0.00 0.00 56 1019.0
20260902183054 92 0 0.0 3.0 0.00 0.00 0.00 58 1019.3
20260902181607 91 327 1.0 5.0 0.00 0.00 0.00 59 1019.5
20260902180054 91 325 1.0 3.0 0.00 0.00 0.00 58 1019.6
20260902174601 92 302 1.0 7.0 0.00 0.00 0.00 57 1019.8
20260902173057 94 318 2.0 6.0 0.00 0.00 0.00 57 1019.9
20260902171621 92 165 1.0 4.0 0.00 0.00 0.00 59 1020.2
20260902164604 91 0 0.0 5.0 0.00 0.00 0.00 61 1020.6
20260902163053 91 335 4.0 9.0 0.00 0.00 0.00 61 1020.7
20260902161605 92 105 2.0 6.0 0.00 0.00 0.00 61 1020.9
20260902160059 90 340 1.0 6.0 0.00 0.00 0.00 65 1020.9
20260902154600 90 330 2.0 8.0 0.00 0.00 0.00 65 1021.2
20260902153053 89 325 1.0 9.0 0.00 0.00 0.00 66 1021.2
20260902151603 89 0 0.0 8.0 0.00 0.00 0.00 71 1021.2
20260902150059 87 342 2.0 4.0 0.00 0.00 0.00 74 1021.2
20260902144602 85 321 2.0 4.0 0.00 0.00 0.00 77 1021.0
20260902143055 85 323 0.0 4.0 0.00 0.00 0.00 77 1021.0
20260902141603 84 327 3.0 5.0 0.00 0.00 0.00 76 1020.7
20260902140100 84 323 1.0 3.0 0.00 0.00 0.00 76 1020.9
20260902134610 84 0 0.0 5.0 0.00 0.00 0.00 78 1020.8
20260902133049 82 335 1.0 4.0 0.00 0.00 0.00 80 1020.9
20260902131600 81 312 0.0 3.0 0.00 0.00 0.00 82 1020.7
20260902124555 79 0 0.0 3.0 0.00 0.00 0.00 85 1020.8
20260902123057 78 0 0.0 3.0 0.00 0.00 0.00 87 1020.9
20260902121600 77 0 0.0 0.0 0.00 0.00 0.00 89 1020.9
20260902120059 75 0 0.0 0.0 0.00 0.00 0.00 92 1020.6
20260902114554 74 0 0.0 0.0 0.00 0.00 0.00 93 1020.4
20260902113110 73 0 0.0 0.0 0.00 0.00 0.00 93 1020.1
20260902111557 73 0 0.0 0.0 0.00 0.00 0.00 93 1020.1
20260902104606 73 0 0.0 0.0 0.00 0.00 0.00 93 1020.1
20260902103103 73 0 0.0 0.0 0.00 0.00 0.00 93 1019.8
20260902101558 73 0 0.0 0.0 0.00 0.00 0.00 93 1019.9
20260902100057 73 0 0.0 0.0 0.00 0.00 0.00 92 1019.8
20260902094557 73 0 0.0 0.0 0.00 0.00 0.00 93 1019.7
20260902093101 73 0 0.0 0.0 0.00 0.00 0.00 92 1019.6
20260902091557 73 0 0.0 0.0 0.00 0.00 0.00 92 1019.5
20260902084604 74 0 0.0 0.0 0.00 0.00 0.00 92 1019.4
20260902083058 74 0 0.0 0.0 0.00 0.00 0.00 92 1019.2
20260902081557 74 0 0.0 0.0 0.00 0.00 0.00 91 1019.2
20260902074612 75 0 0.0 0.0 0.00 0.00 0.00 90 1019.1
20260902073056 75 0 0.0 0.0 0.00 0.00 0.00 90 1019.0
20260902071550 75 0 0.0 0.0 0.00 0.00 0.00 90 1019.2
20260902070103 75 0 0.0 0.0 0.00 0.00 0.00 89 1019.2
20260902064600 75 0 0.0 0.0 0.00 0.00 0.00 89 1019.3
20260902063114 76 0 0.0 0.0 0.00 0.00 0.00 88 1019.1